Regional Weather Roundup
Issued by NWS

Home | Current Version | Previous Version | Graphics & Text | Print | Product List | Glossary On
Versions: 1 2 3 4 5 6 7 8 9 10 11 12 13 14 15 16 17 18 19 20 21 22 23 24 25 26 27 28 29 30 31 32 33 34 35 36 37 38 39 40 41 42 43 44 45 46 47 48 49 50
000
ASUS43 KBIS 021810
RWRND

NORTH DAKOTA REGIONAL WEATHER ROUNDUP
NATIONAL WEATHER SERVICE BISMARCK ND
100 PM CDT TUE SEP 02 2014

NOTE: "FAIR" INDICATES FEW OR NO CLOUDS BELOW 12,000 FEET WITH NO
SIGNIFICANT WEATHER AND/OR OBSTRUCTIONS TO VISIBILITY.


NDZ001>003-009>011-017-021900-
NORTHWEST NORTH DAKOTA

CITY           SKY/WX    TMP DP  RH WIND       PRES   REMARKS
WILLISTON      SUNNY     72  45  37 NW15G23   29.78R
6HR MIN TEMP:  52; 6HR MAX TEMP:  73;

MINOT          SUNNY     75  45  34 SW20      29.71F
MINOT AFB      SUNNY     74  51  44 W16       29.70F
$$

NDZ018>021-031>035-040>046-021900-
SOUTHWEST NORTH DAKOTA

CITY           SKY/WX    TMP DP  RH WIND       PRES   REMARKS
BISMARCK       SUNNY     76  53  44 VRB3      29.80S
6HR MIN TEMP:  48; 6HR MAX TEMP:  76;

DICKINSON      SUNNY     71  46  40 W13G23    29.82F
GARRISON         N/A     74  46  36 W16G24    29.76S
6HR MIN TEMP:  55; 6HR MAX TEMP:  74; 6HR PCP:  0.01;

HETTINGER ARPT SUNNY     72  49  44 W14       29.86F
$$

NDZ004>008-012>016-024-026-027-054-021900-
NORTHEAST NORTH DAKOTA

CITY           SKY/WX    TMP DP  RH WIND       PRES   REMARKS
GRAND FORKS    MOSUNNY   67  56  67 S16       29.75R
GRND FRKS AFB  MOSUNNY   68  58  70 SW10      29.75S
DEVILS LAKE    SUNNY     72  54  53 SW15      29.72F
$$

NDZ022-023-025-028>030-036>039-047>053-021900-
SOUTHEAST NORTH DAKOTA

CITY           SKY/WX    TMP DP  RH WIND       PRES   REMARKS
FARGO          MOSUNNY   76  54  46 MISG      29.80F
6HR MIN TEMP:  51; 6HR MAX TEMP:  76;

JAMESTOWN      SUNNY     74  56  53 S9        29.79F
$$




USA.gov is the U.S. government's official web portal to all federal, state and local government web resources and services.